Regional Weather Roundup
Issued by NWS

Home | Current Version | Previous Version | Text Only | Print | Product List | Glossary Off
Versions: 1 2 3 4 5 6 7 8 9 10 11 12 13 14 15 16 17 18 19 20 21 22 23 24 25 26 27 28 29 30 31 32 33 34 35 36 37 38 39 40 41 42 43 44 45 46 47 48 49 50

000
ASUS43 KMKX 241811
RWRWI

WISCONSIN REGIONAL WEATHER ROUNDUP
NATIONAL WEATHER SERVICE MILWAUKEE/SULLIVAN WI
100 PM CDT WED MAY 24 2017

NOTE: "FAIR" INDICATES FEW OR NO CLOUDS BELOW 12,000 FEET WITH NO
SIGNIFICANT WEATHER AND/OR OBSTRUCTIONS TO VISIBILITY.

WIZ001-002-006>008-014>016-023>028-241900-
NORTHWEST WISCONSIN

CITY           SKY/WX    TMP DP  RH WIND       PRES   REMARKS
SUPERIOR ARPT  NOT AVBL
ASHLAND        PTSUNNY   54  43  66 N13       29.79F
6HR MIN TEMP:  43; 6HR MAX TEMP:  55;

HAYWARD          N/A     58  42  55 N9        29.75F
6HR MIN TEMP:  48; 6HR MAX TEMP:  58;

SIREN          CLOUDY    58  42  53 CALM      29.76S
6HR MIN TEMP:  45; 6HR MAX TEMP:  59;

CUMBERLAND     CLOUDY    55  41  58 NE7       29.74F
RICE LAKE      CLOUDY    57  45  63 NE12G18   29.75F
6HR MIN TEMP:  46; 6HR MAX TEMP:  57;

CHETEK         CLOUDY    57  46  65 E3        29.73F
6HR MIN TEMP:  47; 6HR MAX TEMP:  57;

LADYSMITH      CLOUDY    56  45  66 N8        29.75S
6HR MIN TEMP:  47; 6HR MAX TEMP:  57;

EAU CLAIRE     CLOUDY    60  46  59 NE12      29.71F
6HR MIN TEMP:  48; 6HR MAX TEMP:  60;

MENOMONIE      CLOUDY    58  44  60 N10       29.72S
6HR MIN TEMP:  47; 6HR MAX TEMP:  60; 6HR PCP:  0.01;

NEW RICHMOND   CLOUDY    56  43  61 NE10      29.74S
6HR MIN TEMP:  46; 6HR MAX TEMP:  58;

OSCEOLA        CLOUDY    57  44  62 NE9G17    29.77S
6HR MIN TEMP:  47; 6HR MAX TEMP:  59;

$$

WIZ003>005-009-010-017-018-241900-
NORTH CENTRAL WISCONSIN

CITY           SKY/WX    TMP DP  RH WIND       PRES   REMARKS
MANITOWISH WTR CLOUDY    50  46  84 NE10      29.75S
6HR MIN TEMP:  45; 6HR MAX TEMP:  53;

ARBOR VITAE    CLOUDY    52  47  84 NE7       29.74S
6HR MIN TEMP:  47; 6HR MAX TEMP:  52;

WOODRUFF       CLOUDY    52  47  84 NE7       29.74S
6HR MIN TEMP:  47; 6HR MAX TEMP:  52;

RHINELANDER    CLOUDY    51  47  86 NE6       29.74F
6HR MIN TEMP:  47; 6HR MAX TEMP:  51; 6HR PCP:  0.01;

EAGLE RIVER    LGT RAIN  49  46  90 NE7       29.74F
6HR MIN TEMP:  46; 6HR MAX TEMP:  49;

LAND O LAKES   DRIZZLE   49  46  88 NE7       29.77S
6HR MIN TEMP:  46; 6HR MAX TEMP:  50; 6HR PCP:  0.01;

PHILLIPS       CLOUDY    54  45  72 E9        29.74S
6HR MIN TEMP:  46; 6HR MAX TEMP:  54;

TOMAHAWK       CLOUDY    49  46  87 CALM      29.73F
6HR MIN TEMP:  45; 6HR MAX TEMP:  51;

MEDFORD        CLOUDY    52  46  79 NE8       29.71F
6HR MIN TEMP:  45; 6HR MAX TEMP:  52;

MERRILL        CLOUDY    52  48  87 NE6       29.72S
6HR MIN TEMP:  46; 6HR MAX TEMP:  52;

$$

WIZ029-030-035-036-043>047-241900-
CENTRAL WISCONSIN

CITY           SKY/WX    TMP DP  RH WIND       PRES   REMARKS
WAUSAU         CLOUDY    52  48  86 NE7       29.69S
6HR MIN TEMP:  47; 6HR MAX TEMP:  52; 6HR PCP:  0.02;

MOSINEE        CLOUDY    52  52 100 NE10      29.71S
MARSHFIELD     CLOUDY    53  47  79 NE9       29.69S
6HR MIN TEMP:  47; 6HR MAX TEMP:  53; 6HR PCP: TRACE;

STEVENS POINT  CLOUDY    50  49  95 N8        29.70S
6HR MIN TEMP:  46; 6HR MAX TEMP:  50;

WAUPACA        CLOUDY    54  49  85 NE7       29.70S
6HR MIN TEMP:  50; 6HR MAX TEMP:  54;

WAUTOMA        CLOUDY    52  49  89 NE9       29.69S
6HR MIN TEMP:  48; 6HR MAX TEMP:  52;

WISC RAPIDS    CLOUDY    54  49  83 NE8       29.70S
6HR MIN TEMP:  49; 6HR MAX TEMP:  54;

CAMP DOUGLAS   CLOUDY    54  50  87 N9        29.68S
                                      6HR PCP:  0.02;

$$

WIZ011>013-019>022-031-037>040-048>050-241900-
NORTHEAST WISCONSIN

CITY           SKY/WX    TMP DP  RH WIND       PRES   REMARKS
ANTIGO         CLOUDY    51  48  92 NE12      29.71F
6HR MIN TEMP:  46; 6HR MAX TEMP:  51; 6HR PCP:  0.01;

SHAWANO        CLOUDY    53  50  90 NE10      29.71S
OCONTO         CLOUDY    50  48  93 NE8       29.71S
6HR MIN TEMP:  47; 6HR MAX TEMP:  51; 6HR PCP:  0.07;

STURGEON BAY   CLOUDY    50  49  96 NE6       29.71S
6HR MIN TEMP:  48; 6HR MAX TEMP:  50;

GREEN BAY      CLOUDY    51  51 100 NE12      29.70S
6HR MIN TEMP:  49; 6HR MAX TEMP:  51; 6HR PCP:  0.02;

MANITOWOC      LGT RAIN  50  48  93 NE8       29.67F
6HR MIN TEMP:  46; 6HR MAX TEMP:  50; 6HR PCP:  0.06;

APPLETON       CLOUDY    52  50  93 NE13      29.67S
CLINTONVILLE   CLOUDY    50  48  93 NE8       29.70S
OSHKOSH        CLOUDY    52  50  93 N14       29.66S FOG
6HR MIN TEMP:  50; 6HR MAX TEMP:  53;

$$

WIZ032>034-041-042-053>061-241900-
SOUTHWEST WISCONSIN

CITY           SKY/WX    TMP DP  RH WIND       PRES   REMARKS
LA CROSSE      CLOUDY    58  49  72 N8        29.69F
6HR MIN TEMP:  53; 6HR MAX TEMP:  58;

SPARTA         CLOUDY    54  49  85 N9        29.70S
6HR MIN TEMP:  47; 6HR MAX TEMP:  54;

VIROQUA        CLOUDY    51  49  90 MISG      29.69R
6HR MIN TEMP:  49; 6HR MAX TEMP:  53;

BOSCOBEL       CLOUDY    60  49  66 N8        29.66F
6HR MIN TEMP:  52; 6HR MAX TEMP:  60;

PRAIRIE DU CHI CLOUDY    55  47  72 N8        29.67S
6HR MIN TEMP:  52; 6HR MAX TEMP:  56;

PLATTEVILLE    CLOUDY    58  52  81 N12       29.65S
6HR MIN TEMP:  51; 6HR MAX TEMP:  58;

$$

WIZ056-057-062-063-064-067-068-241900-
SOUTH CENTRAL WISCONSIN

CITY           SKY/WX    TMP DP  RH WIND       PRES   REMARKS
REEDSBURG      CLOUDY    53  51  92 NE7       29.67S
6HR MIN TEMP:  48; 6HR MAX TEMP:  53;

BARABOO/DELLS  CLOUDY    52  49  89 NE7       29.67S FOG
6HR MIN TEMP:  48; 6HR MAX TEMP:  52; 6HR PCP:  0.01;

LONE ROCK      CLOUDY    56  49  77 NE12      29.66S
6HR MIN TEMP:  52; 6HR MAX TEMP:  56; 6HR PCP: TRACE;

MINERAL POINT  CLOUDY    55  52  88 N12       29.65S
MADISON        CLOUDY    53  51  93 N13       29.64S
6HR MIN TEMP:  50; 6HR MAX TEMP:  53; 6HR PCP:  0.01;

MIDDLETON      CLOUDY    54  52  93 NE10      29.66S
6HR MIN TEMP:  51; 6HR MAX TEMP:  54;

WATERTOWN      CLOUDY    54  53  94 N7        29.62F
6HR MIN TEMP:  49; 6HR MAX TEMP:  55; 6HR PCP:  0.01;

MONROE         CLOUDY    52  52 100 N12G20    29.62F
JANESVILLE     CLOUDY    57  55  94 N9G18     29.60F
$$

WIZ051-052-058>065-066-070>072-241900-
SOUTHEAST WISCONSIN

CITY           SKY/WX    TMP DP  RH WIND       PRES   REMARKS
MILWAUKEE      CLOUDY    56  52  86 N17G23    29.60F
6HR MIN TEMP:  48; 6HR MAX TEMP:  56; 6HR PCP:  0.11;

WAUKESHA       CLOUDY    55  52  88 NE10G16   29.62S
MILWAUKEE/TIMM CLOUDY    55  48  76 NE16      29.62S
RACINE         CLOUDY    55  49  80 N18G24    29.61F
6HR MIN TEMP:  47; 6HR MAX TEMP:  55; 6HR PCP:  0.08;

KENOSHA        CLOUDY    57  50  77 NE14G22   29.59F
6HR MIN TEMP:  50; 6HR MAX TEMP:  58; 6HR PCP:  0.05;

FOND DU LAC    CLOUDY    54  50  86 N14       29.66S
6HR MIN TEMP:  50; 6HR MAX TEMP:  55; 6HR PCP: TRACE;

SHEBOYGAN      CLOUDY    55  54  96 NE13      29.64F
6HR MIN TEMP:  47; 6HR MAX TEMP:  55; 6HR PCP:  0.12;

WEST BEND      CLOUDY    55  54  94 NE9G17    29.63S
JUNEAU         CLOUDY    55  51  86 N10       29.64F
6HR MIN TEMP:  49; 6HR MAX TEMP:  56;

$$

LSZ147-162-241900-
LAKE SUPERIOR

STATION/POSITION TIME  TEMP    WIND        PRES    WAVE
                       AIR SEA DIR/SP/G            HT/PER
                 (UTC) (F)     (DEG/KT/KT) (MB)    (FT/S)
W MID LAKE BUOY  1650   40 37   20/ 12/ 14 1010.2F   1/ 3
DEVILS ISLAND    1800   42      60/ 11/ 13 1010.0F
SAXON HARBOR     1740   43      30/  8/  9 1009.1F
$$

LMZ867-665-643>646-241900-
LAKE MICHIGAN

STATION/POSITION TIME  TEMP    WIND        PRES    WAVE
                       AIR SEA DIR/SP/G            HT/PER
                 (UTC) (F)     (DEG/KT/KT) (MB)    (FT/S)
CHAMBERS ISLAND  1740   48      10/ 12/ 13 1006.1S
N MID LAKE BUOY  1750   42 40   60/  8/ 10 1006.8R   1/ 3
NORTHPORT PIER   1740   48      40/  9/ 11 1006.1F
KEWAUNEE LAKESHO



USA.gov is the U.S. government's official web portal to all federal, state and local government web resources and services.